Hourly Weather Abramovka

Today, 27 November, Friday

Time Temperature Precipitation Wind Pressure Humidity
00:00 -4°C° 0 mm 3 mps 753 mmHg 88%
01:00 -4°C° 0.2 mm 4 mps 752 mmHg 91%
02:00 -4°C° 0.2 mm 4 mps 752 mmHg 93%
03:00 -4°C° 0 mm 5 mps 752 mmHg 96%
04:00 -2°C° 0.4 mm 5 mps 751 mmHg 95%
05:00 -2°C° 0.4 mm 5 mps 751 mmHg 95%
06:00 -1°C° 0.4 mm 5 mps 751 mmHg 95%
07:00 -2°C° 0.3 mm 6 mps 750 mmHg 94%
08:00 -1°C° 0.3 mm 6 mps 750 mmHg 94%
09:00 -1°C° 0 mm 6 mps 750 mmHg 93%
10:00 -1°C° 0.1 mm 6 mps 750 mmHg 92%
11:00 -1°C° 0.1 mm 6 mps 750 mmHg 91%
12:00 +1°C° 0.1 mm 6 mps 750 mmHg 90%
13:00 +1°C° 0 mm 6 mps 750 mmHg 89%
14:00 +1°C° 0 mm 6 mps 750 mmHg 88%
15:00 +1°C° 0 mm 6 mps 750 mmHg 87%
16:00 -1°C° 0 mm 6 mps 750 mmHg 87%
17:00 -1°C° 0 mm 6 mps 750 mmHg 87%
18:00 -1°C° 0 mm 6 mps 750 mmHg 87%
19:00 0°C° 0 mm 5 mps 750 mmHg 88%
20:00 0°C° 0 mm 5 mps 750 mmHg 89%
21:00 0°C° 0 mm 5 mps 750 mmHg 89%
22:00 0°C° 0 mm 5 mps 751 mmHg 90%
23:00 0°C° 0 mm 5 mps 751 mmHg 90%

Tomorrow, 28 November, Saturday

Time Temperature Precipitation Wind Pressure Humidity
00:00 -1°C° 0 mm 6 mps 751 mmHg 91%
01:00 0°C° 0 mm 5 mps 751 mmHg 91%
02:00 0°C° 0 mm 5 mps 751 mmHg 91%
03:00 0°C° 0 mm 5 mps 751 mmHg 91%
04:00 0°C° 0 mm 5 mps 751 mmHg 92%
05:00 0°C° 0 mm 5 mps 751 mmHg 92%
06:00 0°C° 0 mm 5 mps 751 mmHg 93%
07:00 0°C° 0 mm 5 mps 752 mmHg 92%
08:00 0°C° 0 mm 5 mps 752 mmHg 92%
09:00 +1°C° 0 mm 5 mps 752 mmHg 92%
10:00 +1°C° 0 mm 5 mps 753 mmHg 91%
11:00 +1°C° 0 mm 5 mps 753 mmHg 90%
12:00 +1°C° 0 mm 5 mps 753 mmHg 88%
13:00 +1°C° 0 mm 5 mps 753 mmHg 89%
14:00 +1°C° 0 mm 5 mps 754 mmHg 89%
15:00 +1°C° 0 mm 4 mps 754 mmHg 90%
16:00 +1°C° 0 mm 4 mps 754 mmHg 90%
17:00 +1°C° 0 mm 5 mps 754 mmHg 90%
18:00 +1°C° 0 mm 5 mps 754 mmHg 89%
19:00 0°C° 0 mm 5 mps 755 mmHg 89%
20:00 0°C° 0 mm 5 mps 755 mmHg 90%
21:00 0°C° 0 mm 5 mps 756 mmHg 90%
22:00 -1°C° 0 mm 5 mps 756 mmHg 88%
23:00 -1°C° 0 mm 5 mps 756 mmHg 87%

Day after tomorrow, 29 November, Sunday

Time Temperature Precipitation Wind Pressure Humidity
00:00 -2°C° 0 mm 5 mps 756 mmHg 85%
01:00 -2°C° 0 mm 5 mps 756 mmHg 88%
02:00 -2°C° 0 mm 5 mps 757 mmHg 91%
03:00 -2°C° 0 mm 5 mps 757 mmHg 94%
04:00 -2°C° 0 mm 6 mps 757 mmHg 93%
05:00 -1°C° 0 mm 6 mps 757 mmHg 93%
06:00 +1°C° 0 mm 6 mps 757 mmHg 92%
07:00 +1°C° 0 mm 6 mps 757 mmHg 92%
08:00 +2°C° 0 mm 6 mps 757 mmHg 91%
09:00 +2°C° 0 mm 7 mps 757 mmHg 90%
10:00 +2°C° 0 mm 7 mps 757 mmHg 88%
11:00 +2°C° 0 mm 7 mps 757 mmHg 86%
12:00 +3°C° 0 mm 7 mps 757 mmHg 83%
13:00 +3°C° 0 mm 7 mps 757 mmHg 81%
14:00 +3°C° 0 mm 7 mps 757 mmHg 79%
15:00 +3°C° 0 mm 7 mps 758 mmHg 78%
16:00 +3°C° 0 mm 7 mps 758 mmHg 77%
17:00 +2°C° 0 mm 7 mps 758 mmHg 76%
18:00 +2°C° 0 mm 7 mps 758 mmHg 75%
19:00 +2°C° 0 mm 7 mps 758 mmHg 72%
20:00 0°C° 0 mm 7 mps 759 mmHg 69%
21:00 0°C° 0 mm 7 mps 759 mmHg 66%
22:00 -1°C° 0 mm 7 mps 759 mmHg 67%
23:00 -1°C° 0 mm 7 mps 759 mmHg 67%

30 November, Monday

Time Temperature Precipitation Wind Pressure Humidity
00:00 -2°C° 0 mm 7 mps 759 mmHg 68%
01:00 -2°C° 0 mm 7 mps 759 mmHg 68%
02:00 -2°C° 0 mm 7 mps 759 mmHg 69%
03:00 -2°C° 0 mm 7 mps 759 mmHg 70%
04:00 -2°C° 0 mm 7 mps 759 mmHg 72%
05:00 -3°C° 0 mm 7 mps 759 mmHg 73%
06:00 -3°C° 0 mm 7 mps 759 mmHg 75%
07:00 -3°C° 0 mm 7 mps 759 mmHg 77%
08:00 -3°C° 0 mm 7 mps 760 mmHg 79%
09:00 -4°C° 0 mm 7 mps 760 mmHg 81%
10:00 -3°C° 0 mm 7 mps 760 mmHg 79%
11:00 -2°C° 0 mm 7 mps 760 mmHg 78%
12:00 -2°C° 0 mm 7 mps 760 mmHg 76%
13:00 -2°C° 0 mm 7 mps 760 mmHg 75%
14:00 -2°C° 0 mm 7 mps 760 mmHg 74%
15:00 -1°C° 0 mm 6 mps 760 mmHg 72%
16:00 -2°C° 0 mm 6 mps 760 mmHg 74%
17:00 -3°C° 0 mm 6 mps 760 mmHg 76%
18:00 -2°C° 0 mm 5 mps 760 mmHg 78%
19:00 -4°C° 0 mm 5 mps 760 mmHg 77%
20:00 -4°C° 0 mm 6 mps 760 mmHg 76%
21:00 -4°C° 0 mm 6 mps 760 mmHg 75%
22:00 -4°C° 0 mm 6 mps 760 mmHg 75%
23:00 -4°C° 0 mm 6 mps 760 mmHg 75%

1 December, Tuesday

Time Temperature Precipitation Wind Pressure Humidity
00:00 -5°C° 0 mm 5 mps 761 mmHg 74%
01:00 -5°C° 0 mm 5 mps 760 mmHg 72%
02:00 -5°C° 0 mm 5 mps 760 mmHg 70%
03:00 -5°C° 0 mm 5 mps 760 mmHg 69%
04:00 -5°C° 0 mm 5 mps 761 mmHg 67%
05:00 -6°C° 0 mm 5 mps 761 mmHg 66%
06:00 -6°C° 0 mm 5 mps 761 mmHg 64%
07:00 -6°C° 0 mm 5 mps 761 mmHg 64%
08:00 -6°C° 0 mm 6 mps 761 mmHg 63%
09:00 -6°C° 0 mm 6 mps 761 mmHg 63%
10:00 -5°C° 0 mm 6 mps 761 mmHg 60%
11:00 -5°C° 0 mm 6 mps 761 mmHg 58%
12:00 -4°C° 0 mm 6 mps 761 mmHg 55%
13:00 -4°C° 0 mm 6 mps 760 mmHg 55%
14:00 -4°C° 0 mm 6 mps 760 mmHg 56%
15:00 -4°C° 0 mm 6 mps 760 mmHg 57%
16:00 -5°C° 0 mm 6 mps 760 mmHg 59%
17:00 -5°C° 0 mm 6 mps 760 mmHg 61%
18:00 -6°C° 0 mm 6 mps 760 mmHg 63%
19:00 -6°C° 0 mm 6 mps 760 mmHg 63%
20:00 -6°C° 0 mm 6 mps 761 mmHg 64%
21:00 -8°C° 0 mm 6 mps 761 mmHg 64%
22:00 -8°C° 0 mm 6 mps 761 mmHg 64%
23:00 -8°C° 0 mm 6 mps 761 mmHg 64%

2 December, Wednesday

Time Temperature Precipitation Wind Pressure Humidity
00:00 -8°C° 0 mm 6 mps 761 mmHg 65%
01:00 -9°C° 0 mm 6 mps 761 mmHg 66%
02:00 -9°C° 0 mm 6 mps 761 mmHg 67%
03:00 -8°C° 0 mm 5 mps 761 mmHg 68%
04:00 -8°C° 0 mm 5 mps 761 mmHg 70%
05:00 -10°C° 0 mm 5 mps 761 mmHg 71%
06:00 -10°C° 0 mm 5 mps 761 mmHg 73%
07:00 -10°C° 0 mm 5 mps 762 mmHg 73%
08:00 -10°C° 0 mm 5 mps 762 mmHg 73%
09:00 -10°C° 0 mm 5 mps 762 mmHg 73%
10:00 -10°C° 0 mm 5 mps 762 mmHg 67%
11:00 -8°C° 0 mm 5 mps 762 mmHg 62%
12:00 -7°C° 0 mm 5 mps 762 mmHg 56%
13:00 -7°C° 0 mm 5 mps 762 mmHg 55%
14:00 -7°C° 0 mm 5 mps 762 mmHg 53%
15:00 -7°C° 0 mm 5 mps 762 mmHg 51%
16:00 -7°C° 0 mm 5 mps 762 mmHg 54%
17:00 -8°C° 0 mm 5 mps 762 mmHg 57%
18:00 -10°C° 0 mm 5 mps 762 mmHg 60%
19:00 -10°C° 0 mm 5 mps 762 mmHg 63%
20:00 -11°C° 0 mm 5 mps 762 mmHg 65%
21:00 -11°C° 0 mm 5 mps 762 mmHg 67%
22:00 -11°C° 0 mm 5 mps 763 mmHg 68%
23:00 -12°C° 0 mm 5 mps 763 mmHg 70%
Show more

We Need Your Consent

Meteoprog and our Service Providers may store and access personal data such as cookies, device identifiers or other similar technologies on your device and process such data to personalise content and ads, as well as provide social media features and to analyse the traffic.

  • Store and/or access information on your device

    Cookies, device identifiers or other information can be stored or accessed on your device for the purposes indicated above.

  • Personalised ads and content, ad and content measurement, audience insights, and products development

    Ads and content can be personalised based on a profile. More data can be added to better personalise ads and content. Ad and content performance can be measured. Insights about the audience who saw the ads and content can be derived. Such data can be used to develop or improve user’s experience, systems and software.

By clicking ‘I Agree’ you will allow the use of indicated cookies, device identifiers, web beacons or other similar technologies. Your settings can be changed in the browser on your device.

For certain purposes, legitimate interests may be relied on, rather than consent. You can read more about this in our Privacy and Cookie Policy.